GLO1164 SBGR-SBCT

Flight info

Callsign GLO1164
Flight time 0h 41m
Altitude 26000
Route SOVSI UZ85 RAXIT
Aircraft B738/M-SDFGIKLORWXY/LB1

Departure

Time 2026-05-01 14:24
Airport São Paulo/Guarulhos–Governor André Franco Montoro International Airport (SBGR)

Arrival

Time 2026-05-01 15:05
Airport Curitiba-Afonso Pena International Airport (SBCT)
Time Latitude Longitude Altitude Speed Heading
2026-05-01 14:11 -23.42860 -46.48230 2467 ft 0 kts 288°
2026-05-01 14:17 -23.42861 -46.48225 2467 ft 4 kts 285°
2026-05-01 14:17 -23.42863 -46.48199 2467 ft 4 kts 242°
2026-05-01 14:18 -23.42845 -46.48180 2471 ft 4 kts 199°
2026-05-01 14:18 -23.42819 -46.48175 2467 ft 4 kts 179°
2026-05-01 14:18 -23.42810 -46.48175 2467 ft 0 kts 174°
2026-05-01 14:21 -23.42836 -46.48172 2467 ft 10 kts 174°
2026-05-01 14:21 -23.42922 -46.48153 2471 ft 13 kts 156°
2026-05-01 14:21 -23.43010 -46.48135 2471 ft 13 kts 174°
2026-05-01 14:22 -23.43179 -46.48102 2471 ft 12 kts 164°
2026-05-01 14:22 -23.43256 -46.48078 2472 ft 10 kts 164°
2026-05-01 14:22 -23.43320 -46.48074 2469 ft 10 kts 206°
2026-05-01 14:22 -23.43356 -46.48067 2470 ft 3 kts 77°
2026-05-01 14:23 -23.43303 -46.47870 2469 ft 61 kts 73°
2026-05-01 14:23 -23.43120 -46.47195 2470 ft 123 kts 73°
2026-05-01 14:23 -23.42824 -46.46117 2471 ft 172 kts 75°
2026-05-01 14:23 -23.42487 -46.44790 3015 ft 184 kts 73°
2026-05-01 14:24 -23.42134 -46.43421 3690 ft 195 kts 72°
2026-05-01 14:24 -23.41683 -46.41928 3949 ft 221 kts 70°
2026-05-01 14:24 -23.41167 -46.40234 4135 ft 250 kts 71°
2026-05-01 14:24 -23.40616 -46.38400 4664 ft 263 kts 70°
2026-05-01 14:25 -23.40212 -46.36454 5512 ft 269 kts 88°
2026-05-01 14:25 -23.40477 -46.34393 6182 ft 282 kts 106°
2026-05-01 14:25 -23.41147 -46.32367 6927 ft 288 kts 109°
2026-05-01 14:25 -23.41850 -46.30325 7751 ft 288 kts 109°
2026-05-01 14:26 -23.42552 -46.28262 8455 ft 295 kts 111°
2026-05-01 14:26 -23.45407 -46.25280 8948 ft 289 kts 167°
2026-05-01 14:26 -23.47413 -46.25120 9061 ft 296 kts 188°
2026-05-01 14:27 -23.49455 -46.25514 9777 ft 299 kts 193°
2026-05-01 14:27 -23.51489 -46.25956 10600 ft 300 kts 193°
2026-05-01 14:27 -23.53555 -46.26489 10848 ft 320 kts 203°
2026-05-01 14:28 -23.56507 -46.30125 11627 ft 338 kts 256°
2026-05-01 14:28 -23.57064 -46.32825 12404 ft 340 kts 259°
2026-05-01 14:28 -23.57540 -46.35374 13033 ft 345 kts 259°
2026-05-01 14:28 -23.58014 -46.37923 13718 ft 348 kts 259°
2026-05-01 14:29 -23.58342 -46.39654 14167 ft 351 kts 258°
2026-05-01 14:29 -23.59047 -46.43296 15049 ft 355 kts 258°
2026-05-01 14:30 -23.60629 -46.51306 17045 ft 363 kts 258°
2026-05-01 14:30 -23.61115 -46.54013 17699 ft 365 kts 261°
2026-05-01 14:30 -23.61506 -46.56759 18336 ft 368 kts 262°
2026-05-01 14:31 -23.62288 -46.62330 19436 ft 374 kts 262°
2026-05-01 14:31 -23.62774 -46.65126 19964 ft 378 kts 254°
2026-05-01 14:31 -23.63936 -46.67717 20489 ft 384 kts 239°
2026-05-01 14:31 -23.65394 -46.70163 21037 ft 386 kts 238°
2026-05-01 14:32 -23.66877 -46.72624 21536 ft 390 kts 239°
2026-05-01 14:32 -23.67854 -46.74269 21860 ft 392 kts 239°
2026-05-01 14:32 -23.69806 -46.77608 22506 ft 396 kts 240°
2026-05-01 14:32 -23.71285 -46.80156 23017 ft 398 kts 240°
2026-05-01 14:33 -23.72773 -46.82699 23597 ft 398 kts 239°
2026-05-01 14:33 -23.74266 -46.85235 24245 ft 394 kts 239°
2026-05-01 14:33 -23.75741 -46.87735 24856 ft 390 kts 239°
2026-05-01 14:33 -23.77206 -46.90219 25444 ft 388 kts 240°
2026-05-01 14:34 -23.78660 -46.92690 26002 ft 387 kts 240°
2026-05-01 14:34 -23.80117 -46.95168 26155 ft 386 kts 240°
2026-05-01 14:34 -23.81563 -46.97631 26190 ft 384 kts 240°
2026-05-01 14:34 -23.82985 -47.00055 26191 ft 385 kts 240°
2026-05-01 14:35 -23.84431 -47.02522 26199 ft 386 kts 240°
2026-05-01 14:35 -23.85879 -47.04994 26197 ft 387 kts 240°
2026-05-01 14:35 -23.87330 -47.07471 26196 ft 387 kts 240°
2026-05-01 14:35 -23.88778 -47.09945 26194 ft 387 kts 240°
2026-05-01 14:36 -23.90226 -47.12419 26195 ft 387 kts 240°
2026-05-01 14:36 -23.91675 -47.14896 26194 ft 387 kts 240°
2026-05-01 14:36 -23.93123 -47.17373 26190 ft 386 kts 240°
2026-05-01 14:36 -23.94547 -47.19811 26192 ft 386 kts 240°
2026-05-01 14:37 -23.95991 -47.22282 26187 ft 385 kts 240°
2026-05-01 14:37 -23.97429 -47.24746 26186 ft 384 kts 240°
2026-05-01 14:37 -23.98868 -47.27212 26191 ft 384 kts 240°
2026-05-01 14:37 -24.00301 -47.29671 26175 ft 383 kts 240°
2026-05-01 14:38 -24.01730 -47.32126 26187 ft 383 kts 240°
2026-05-01 14:38 -24.03164 -47.34586 26188 ft 383 kts 240°
2026-05-01 14:38 -24.04596 -47.37044 26186 ft 384 kts 240°
2026-05-01 14:38 -24.06013 -47.39479 26185 ft 385 kts 240°
2026-05-01 14:39 -24.07449 -47.41947 26188 ft 385 kts 240°
2026-05-01 14:39 -24.08886 -47.44419 26181 ft 385 kts 240°
2026-05-01 14:39 -24.10410 -47.46824 26171 ft 387 kts 231°
2026-05-01 14:39 -24.12477 -47.48710 26190 ft 386 kts 217°
2026-05-01 14:40 -24.14717 -47.50271 26178 ft 381 kts 215°
2026-05-01 14:40 -24.17021 -47.51815 26200 ft 396 kts 215°
2026-05-01 14:40 -24.19411 -47.53424 26195 ft 411 kts 216°
2026-05-01 14:40 -24.21844 -47.55078 26200 ft 423 kts 216°
2026-05-01 14:41 -24.24377 -47.56814 26198 ft 435 kts 216°
2026-05-01 14:41 -24.26970 -47.58603 26196 ft 446 kts 216°
2026-05-01 14:41 -24.29622 -47.60439 26194 ft 455 kts 216°
2026-05-01 14:41 -24.32322 -47.62311 26188 ft 462 kts 216°
2026-05-01 14:42 -24.35044 -47.64199 26174 ft 463 kts 216°
2026-05-01 14:42 -24.37758 -47.66080 26180 ft 461 kts 216°
2026-05-01 14:42 -24.40473 -47.67965 26176 ft 461 kts 216°
2026-05-01 14:42 -24.43090 -47.69900 26165 ft 458 kts 222°
2026-05-01 14:43 -24.45476 -47.72179 26180 ft 454 kts 226°
2026-05-01 14:43 -24.47762 -47.74563 26171 ft 453 kts 227°
2026-05-01 14:43 -24.50020 -47.76972 26173 ft 452 kts 227°
2026-05-01 14:43 -24.52279 -47.79373 26175 ft 452 kts 227°
2026-05-01 14:44 -24.54551 -47.81757 26179 ft 452 kts 227°
2026-05-01 14:44 -24.59129 -47.86486 26179 ft 452 kts 226°
2026-05-01 14:44 -24.61402 -47.88814 26182 ft 452 kts 226°
2026-05-01 14:45 -24.63706 -47.91171 26179 ft 453 kts 226°
2026-05-01 14:45 -24.68315 -47.95888 26181 ft 453 kts 226°
2026-05-01 14:45 -24.70605 -47.98232 26165 ft 442 kts 226°
2026-05-01 14:46 -24.72808 -48.00484 26167 ft 423 kts 226°
2026-05-01 14:46 -24.76973 -48.04750 25800 ft 400 kts 227°
2026-05-01 14:46 -24.78972 -48.06808 25365 ft 398 kts 227°
2026-05-01 14:47 -24.80986 -48.08883 24936 ft 395 kts 227°
2026-05-01 14:47 -24.82991 -48.10948 24450 ft 395 kts 227°
2026-05-01 14:47 -24.84991 -48.13009 23975 ft 394 kts 227°
2026-05-01 14:48 -24.88985 -48.17123 22933 ft 390 kts 226°
2026-05-01 14:48 -24.90961 -48.19160 22446 ft 387 kts 227°
2026-05-01 14:48 -24.94862 -48.23181 21542 ft 381 kts 227°
2026-05-01 14:49 -24.98487 -48.27309 20587 ft 372 kts 243°
2026-05-01 14:49 -25.00719 -48.32389 19680 ft 367 kts 247°
2026-05-01 14:50 -25.02200 -48.35765 19079 ft 365 kts 246°
2026-05-01 14:50 -25.05178 -48.42433 17825 ft 362 kts 246°
2026-05-01 14:51 -25.05913 -48.44075 17528 ft 360 kts 246°
2026-05-01 14:51 -25.08466 -48.49773 16500 ft 353 kts 245°
2026-05-01 14:52 -25.10623 -48.54595 15649 ft 348 kts 245°
2026-05-01 14:52 -25.11330 -48.56176 15370 ft 347 kts 245°
2026-05-01 14:52 -25.13455 -48.60934 14522 ft 345 kts 245°
2026-05-01 14:53 -25.14511 -48.63300 14090 ft 344 kts 245°
2026-05-01 14:53 -25.15906 -48.66428 13496 ft 341 kts 245°
2026-05-01 14:53 -25.16609 -48.68015 13200 ft 340 kts 245°
2026-05-01 14:53 -25.17644 -48.70356 12761 ft 338 kts 245°
2026-05-01 14:54 -25.18670 -48.72678 12352 ft 336 kts 245°
2026-05-01 14:54 -25.19678 -48.74959 11927 ft 334 kts 245°
2026-05-01 14:54 -25.20691 -48.77253 11542 ft 331 kts 245°
2026-05-01 14:54 -25.21545 -48.79595 11187 ft 327 kts 258°
2026-05-01 14:55 -25.21780 -48.82053 11006 ft 318 kts 267°
2026-05-01 14:55 -25.21893 -48.84462 10817 ft 311 kts 267°
2026-05-01 14:55 -25.22002 -48.86818 10629 ft 304 kts 267°
2026-05-01 14:55 -25.22118 -48.89120 10450 ft 297 kts 266°
2026-05-01 14:56 -25.22242 -48.91369 10287 ft 290 kts 266°
2026-05-01 14:56 -25.22367 -48.93540 10120 ft 284 kts 266°
2026-05-01 14:56 -25.22491 -48.95691 9957 ft 278 kts 266°
2026-05-01 14:56 -25.22631 -48.97798 9789 ft 273 kts 262°
2026-05-01 14:57 -25.23210 -48.99775 9639 ft 267 kts 246°
2026-05-01 14:57 -25.24801 -49.03491 9332 ft 269 kts 246°
2026-05-01 14:57 -25.25601 -49.05371 9177 ft 271 kts 246°
2026-05-01 14:58 -25.26399 -49.07259 9029 ft 272 kts 246°
2026-05-01 14:58 -25.27195 -49.09160 8876 ft 274 kts 246°
2026-05-01 14:58 -25.27990 -49.11050 8721 ft 275 kts 246°
2026-05-01 14:58 -25.28788 -49.12953 8545 ft 271 kts 247°
2026-05-01 14:59 -25.29584 -49.14860 8208 ft 274 kts 247°
2026-05-01 14:59 -25.30375 -49.16756 8008 ft 269 kts 247°
2026-05-01 14:59 -25.31148 -49.18611 7868 ft 263 kts 247°
2026-05-01 14:59 -25.31912 -49.20446 7783 ft 262 kts 248°
2026-05-01 15:00 -25.33495 -49.23987 7491 ft 251 kts 234°
2026-05-01 15:00 -25.34714 -49.25335 7205 ft 250 kts 226°
2026-05-01 15:00 -25.35977 -49.26639 6892 ft 248 kts 227°
2026-05-01 15:01 -25.37209 -49.27930 6652 ft 241 kts 227°
2026-05-01 15:01 -25.38407 -49.29201 6389 ft 235 kts 227°
2026-05-01 15:01 -25.39800 -49.30108 6071 ft 236 kts 195°
2026-05-01 15:01 -25.41414 -49.30019 5807 ft 236 kts 159°
2026-05-01 15:02 -25.42711 -49.28966 5534 ft 230 kts 133°
2026-05-01 15:02 -25.43428 -49.28129 5360 ft 223 kts 133°
2026-05-01 15:02 -25.44830 -49.26563 5057 ft 207 kts 133°
2026-05-01 15:02 -25.45800 -49.25477 4801 ft 195 kts 133°
2026-05-01 15:03 -25.46730 -49.24454 4584 ft 181 kts 134°
2026-05-01 15:03 -25.47591 -49.23496 4323 ft 169 kts 133°
2026-05-01 15:03 -25.48403 -49.22577 4050 ft 164 kts 133°
2026-05-01 15:03 -25.49195 -49.21661 3819 ft 164 kts 132°
2026-05-01 15:04 -25.49995 -49.20781 3660 ft 160 kts 133°
2026-05-01 15:04 -25.50779 -49.19912 3456 ft 159 kts 131°
2026-05-01 15:04 -25.51558 -49.19023 3223 ft 163 kts 132°
2026-05-01 15:04 -25.52345 -49.18142 3010 ft 159 kts 131°
2026-05-01 15:05 -25.53057 -49.17347 2995 ft 113 kts 136°
2026-05-01 15:05 -25.53380 -49.16984 2994 ft 50 kts 134°
2026-05-01 15:05 -25.53543 -49.16799 2993 ft 17 kts 134°
2026-05-01 15:05 -25.53608 -49.16781 2993 ft 10 kts 224°
2026-05-01 15:06 -25.53612 -49.16857 2994 ft 10 kts 272°
2026-05-01 15:06 -25.53611 -49.16904 2994 ft 5 kts 272°
2026-05-01 15:06 -25.53604 -49.16941 2994 ft 5 kts 287°
2026-05-01 15:06 -25.53581 -49.16980 2995 ft 7 kts 309°
2026-05-01 15:07 -25.53590 -49.17027 2995 ft 7 kts 227°
2026-05-01 15:07 -25.53622 -49.17067 2995 ft 7 kts 226°
2026-05-01 15:07 -25.53654 -49.17102 2995 ft 5 kts 225°
2026-05-01 15:07 -25.53664 -49.17113 2995 ft 1 kts 225°
2026-05-01 15:08 -25.53664 -49.17114 2995 ft 0 kts 225°